Weather History for Fort Worth, TX

Change the Weather History Date:

Thursday, February 13, 2014

  Actual Average Record
Temperature  
Mean Temperature 50 °F -  
Max Temperature 70 °F 58 °F 75 °F (2005)
Min Temperature 30 °F 38 °F 23 °F (2004)
Degree Days  
Heating Degree Days 15    
Moisture  
Dew Point 34 °F    
Average Humidity 60    
Maximum Humidity 89    
Minimum Humidity 28    
Precipitation  
Precipitation 0.00 in - - ()
Sea Level Pressure  
Sea Level Pressure 29.95 in    
Wind  
Wind Speed 4 mph (South)    
Max Wind Speed 12 mph    
Max Gust Speed 21 mph    
Visibility 10 miles    
Events      
Averages and records for this station are not official NWS values.
T = Trace of Precipitation, MM = Missing Value Source: NWS Daily Summary

Daily Weather History Graph

Daily Weather History Graph

Search for Another Location

Airport:

Trip Planner

Search our weather history database for the weather conditions in past years. The results will help you decide how hot, cold, wet, or windy it might be!

Date:

Astronomy

Feb. 13, 2014 Rise Set
Actual Time 7:14 AM CST 6:13 PM CST
Civil Twilight 6:49 AM CST 6:38 PM CST
Nautical Twilight 6:20 AM CST 7:07 PM CST
Astronomical Twilight 5:51 AM CST 7:36 PM CST
Moon 5:22 PM CST (2/13) 6:07 AM CST (2/13)
Length of Visible Light 11h 49m
Length of Day
10h 58m
Waxing Gibbous, 99% of the Moon is Illuminated
Feb 13
Waxing Gibbous
Feb 14
Full
Feb 22
Last Quarter
Mar 1
New
Mar 8
First Quarter

Hourly Weather History & Observations

Time (CST) Temp. Windchill Dew Point Humidity Pressure Visibility Wind Dir Wind Speed Gust Speed Precip Events Conditions
12:53 AM 35.1 °F - 30.0 °F 82% 30.05 in 10.0 mi Calm Calm - N/A   Clear
1:53 AM 35.1 °F - 28.9 °F 78% 30.04 in 10.0 mi Calm Calm - N/A   Clear
2:53 AM 37.0 °F 34.5 °F 28.9 °F 73% 30.03 in 10.0 mi NNE 3.5 mph - N/A   Clear
3:53 AM 33.1 °F 30.0 °F 28.0 °F 82% 30.01 in 10.0 mi ENE 3.5 mph - N/A   Clear
4:53 AM 32.0 °F - 27.0 °F 82% 29.99 in 10.0 mi Calm Calm - N/A   Clear
5:53 AM 32.0 °F - 28.9 °F 88% 30.01 in 10.0 mi Calm Calm - N/A   Clear
6:53 AM 30.9 °F - 28.0 °F 89% 30.03 in 10.0 mi Calm Calm - N/A   Clear
7:53 AM 33.1 °F - 28.9 °F 85% 30.02 in 10.0 mi Calm Calm - N/A   Clear
8:53 AM 37.0 °F - 32.0 °F 82% 30.03 in 9.0 mi Calm Calm - N/A   Clear
9:53 AM 45.0 °F 41.8 °F 34.0 °F 65% 30.03 in 10.0 mi SSE 5.8 mph - N/A   Clear
10:53 AM 50.0 °F - 36.0 °F 59% 30.01 in 10.0 mi South 6.9 mph - N/A   Clear
11:53 AM 60.1 °F - 37.0 °F 42% 29.99 in 10.0 mi SSW 9.2 mph 17.3 mph N/A   Clear
12:53 PM 63.0 °F - 37.0 °F 38% 29.94 in 10.0 mi South 10.4 mph - N/A   Clear
1:53 PM 66.0 °F - 36.0 °F 33% 29.90 in 10.0 mi SSW 11.5 mph 20.7 mph N/A   Clear
2:53 PM 66.9 °F - 37.0 °F 33% 29.86 in 10.0 mi South 8.1 mph - N/A   Clear
3:53 PM 69.1 °F - 37.9 °F 32% 29.85 in 10.0 mi SSE 10.4 mph - N/A   Clear
4:53 PM 70.0 °F - 35.1 °F 28% 29.85 in 10.0 mi South 9.2 mph - N/A   Clear
5:53 PM 64.9 °F - 35.1 °F 33% 29.84 in 10.0 mi South 10.4 mph - N/A   Clear
6:53 PM 59.0 °F - 37.9 °F 46% 29.86 in 10.0 mi South 9.2 mph - N/A   Clear
7:53 PM 54.0 °F - 39.0 °F 57% 29.86 in 10.0 mi SSE 9.2 mph - N/A   Clear
8:53 PM 52.0 °F - 37.9 °F 59% 29.88 in 10.0 mi South 6.9 mph - N/A   Clear
9:53 PM 53.1 °F - 37.9 °F 57% 29.88 in 10.0 mi South 5.8 mph - N/A   Clear
10:53 PM 52.0 °F - 37.9 °F 59% 29.87 in 10.0 mi Calm Calm - N/A   Clear
11:53 PM 50.0 °F - 37.0 °F 61% 29.85 in 10.0 mi South 3.5 mph - N/A   Clear